Regional Weather Roundup
Issued by NWS

Home | Current Version | Previous Version | Text Only | Print | Product List | Glossary Off
Versions: 1 2 3 4 5 6 7 8 9 10 11 12 13 14 15 16 17 18 19 20 21 22 23 24 25 26 27 28 29 30 31 32 33 34 35 36 37 38 39 40 41 42 43 44 45 46 47 48 49 50

332
ASUS43 KBIS 211510
RWRND

NORTH DAKOTA REGIONAL WEATHER ROUNDUP
NATIONAL WEATHER SERVICE BISMARCK ND
900 AM CST TUE FEB 21 2017

NOTE: "FAIR" INDICATES FEW OR NO CLOUDS BELOW 12,000 FEET WITH NO
SIGNIFICANT WEATHER AND/OR OBSTRUCTIONS TO VISIBILITY.


NDZ001>003-009>011-017-211600-
NORTHWEST NORTH DAKOTA

CITY           SKY/WX    TMP DP  RH WIND       PRES   REMARKS
WILLISTON      FAIR      34  29  82 CALM      29.66S
MINOT          FLURRIES  34  30  85 S5        29.64S
MINOT AFB      SUNNY     28  26  90 CALM      29.64S
$$

NDZ018>021-031>035-040>046-211600-
SOUTHWEST NORTH DAKOTA

CITY           SKY/WX    TMP DP  RH WIND       PRES   REMARKS
BISMARCK       FAIR      33  30  88 SE5       29.70R
DICKINSON      FAIR      39  30  70 SW6       29.68R
GARRISON         N/A     31  27  85 SW6       29.67R
HETTINGER ARPT PTSUNNY   36  30  79 CALM      29.74R
$$

NDZ004>008-012>016-024-026-027-054-211600-
NORTHEAST NORTH DAKOTA

CITY           SKY/WX    TMP DP  RH WIND       PRES   REMARKS
GRAND FORKS    MOSUNNY   33  29  85 SE7       29.70F FOG
GRND FRKS AFB  SUNNY     32  32  99 SE3       29.70S FOG
DEVILS LAKE    FAIR      31  29  92 SE5       29.66S
$$

NDZ022-023-025-028>030-036>039-047>053-211600-
SOUTHEAST NORTH DAKOTA

CITY           SKY/WX    TMP DP  RH WIND       PRES   REMARKS
FARGO          SUNNY     39  33  79 S10       29.69S
JAMESTOWN      FAIR      35  31  85 W6        29.65S
$$





USA.gov is the U.S. government's official web portal to all federal, state and local government web resources and services.